Aérodrome :
LOGIN :

S'inscrire | Disclaimer

   EN    FR    IT 

 










Légende :    VFR   VFR Marginal   IFR   IFR Intensif   IFR Très Intensif
Visi : 
Plafond : 
>= 8 km
>= 3000ft
5 à 8 km
1000 à 3000 ft
1500m à 5 km
500 à 1000 ft
800 à 1500m
200 à 500 ft
< 800m
< 200 ft
Symboles :   Orages  Brouillard  Fortes neiges  Fortes précipitations  Vent > 20 kt
SIGMETs :   Divers  Orages  Givrage  Turbulence  Onde Orograph.  Cendres Volcan.







- Altitude de l'aérodrome : 1568 ft


ETSB - Büchel AB

DERNIER METAR :
  • 230720Z 27008KT 9000 FEW030 BKN170 04/02 Q1027 BLU BLU

METARs EXPIRÉS :
  • 230620Z 26007KT 7000 BKN180 03/02 Q1027 WHT WHT BECMG BLU
  • 230520Z 26006KT 6000 BKN180 03/02 Q1029 WHT WHT TEMPO YLO

TAF TAF ETSB
Valide du 23 à 08h jusqu'au 23 à 17h UTC


230715Z 2308/2317 25012KT 9999 NSW SCT030 BKN180
TEMPO 2312/2317 25015G25KT 9000 NSW BKN020 BKN030 BKN150 BY ETGL
Pas de NOTAMs connus pour ce terrain.



MET'MAP, la Météo Aéronautique d'un coup d'oeil ! - Copyright ORBIFLY Décembre 2007 - Disclaimer

ORBIFLY MET'MAP TEAM :

Programmation & Développement : Alexandra Zaïnal
Conception & Développement : Baudouin d'Aumeries
Co-Programmation & Développement : Marc-Olivier Méhu
Soutien technique & logistique : Manuel Goepfert

Contact : metmap@orbifly.com




SOURCES & CREDITS :

   NOAA